STARLINK-11224 [DTC] (60304 NORAD) Tracking and Keplerian Element Data

This shows tracking and keplerian element data for the satellite.

Feedback or suggestion? Click here.




ElementValue
Catalog60304
NameSTARLINK-11224 [DTC]
Epoch Orbit1325
Epoch Day286.80512352
Epoch Year2024
RAAN155.0097
Inclination53.1568
Eccentricity0.0004064
Argument of Perigee162.0001
Mean Anonmoly198.1164
Mean Motion15.75056144
Decay Rate0.00035047
L11 60304U 24133D 24286.80512352 .00035047 00000+0 23362-3 0 9991
L22 60304 53.1568 155.0097 0004064 162.0001 198.1164 15.75056144 13253



Live tracking and technical data element details for STARLINK-11224 [DTC] (NORAD 60304). STARLINK-11224 [DTC] can be tracked NOW for your location showing map with azimuth and elevation plus other details from your city location.







IsCatalogInMostPopularTable: catalog: 60304, numindb: 9
Update: records affected: 1



GetName: 60304 STARLINK-11224 [DTC]

Hit Count: updated at: Tue, 03 Dec 2024 02:07:14 GMT